Starlink 32125

operational
NORAD ID: 60260 Int'l Des: 2024-131 Owner: SPXS Country: US Constellation: starlink
LEOCIRCULAR

About Starlink 32125

Description loading...

Live Position

Loading 3D Globe...

Upcoming Passes

Altitude History

Altitude vs Time

uPlot chart will show altitude changes over time

Two-Line Element Set

1 60260U 24131F 25350.93841133 .00002614 00000-0 10039-3 0 9991
2 60260 53.1600 76.4733 0000962 55.7029 304.4063 15.30189027 79053
Epoch: Dec 16, 2025 • Age: 8 hours

Current Status

Altitude 480.6 km
Velocity 7.63 km/s
Sub-Earth Point 50.91°N, 45.04°W
Launch Date Jul 27, 2024
Age 1.3 years
Type internet

Technical Details

Classification Payload
Mass 730.00 kg
Dry Mass 700.00 kg
Total Mass 730.00 kg
Length 0.30 m
Diameter 4.10 m
Span 29.00 m
Shape Box + pan
Manufacturer SPXS
Bus Type Starlink V2M
Phase Status In Orbit
Owner/State SPXS/US

Large Constellations

Loading constellations...